Preview of NWS' New Version of Forecast
This preview is not operational and should not be used for support decisions.

Regional Weather Roundup (RWR)

Issued by National Weather Service (NWS)

                            
000
ASCA42 TJSJ 221010
RWRPR 
PUERTO RICO/U.S. VIRGIN ISLANDS HOURLY WEATHER ROUNDUP
NATIONAL WEATHER SERVICE SAN JUAN PR
600 AM AST MON JUL 22 2019

PRZ001>002-007>008-010-221100-
PUERTO RICO
  
CITY           SKY/WX    TMP DP  RH WIND       PRES   REMARKS
SAN JUAN LMM   PTCLDY    79  72  78 SE3       30.01R                  
CEIBA          PTCLDY    81  72  74 E5        30.02R                  
$$

VIZ001>002-221100-
U.S. VIRGIN ISLANDS
  
CITY           SKY/WX    TMP DP  RH WIND       PRES   REMARKS
CHARLOTTE AMA  CLEAR     79  72  78 E7        30.00R                  
CHRISTIANSTED  PTCLDY    79  70  73 NE6       30.01R                  
$$

HOURLY WEATHER ROUNDUP FOR THE NEWS MEDIA
  
CITY           SKY/WX    TMP DP  RH WIND       PRES   REMARKS
ORLANDO        FAIR      74  71  91 CALM      30.02F                  
NEW YORK       MOCLDY    78  74  87 E3        29.85R                  
NEWARK         MOCLDY    78  71  79 W6        29.85R                  
CHICAGO        MOCLDY    66  61  84 N12       29.99R                  
HARTFORD       FAIR      72  66  81 CALM      29.83R                  
BOSTON         CLOUDY    79  64  60 NW12      29.83S                  
DALLAS         PTCLDY    82  71  69 SW5       29.94S                  
PHILADELPHIA   MOCLDY    78  68  71 N6        29.85F                  
LOS ANGELES    MOCLDY    63  60  90 VRB3      29.94S                  
WASHINGTON DC  FAIR      71  68  90 CALM      29.87F